Regional Weather Roundup
Issued by NWS Burlington, VT

Current Version | Previous Version | Graphics & Text | Print | Product List | Glossary Off
Versions: 1 2 3 4 5 6 7 8 9 10 11 12 13 14 15 16 17 18 19 20 21 22 23 24 25 26 27 28 29 30 31 32 33 34 35 36 37 38 39 40 41 42 43 44 45 46 47 48 49 50

000
ASUS41 KBTV 210830
RWRBTV
VERMONT REGIONAL WEATHER ROUNDUP
NATIONAL WEATHER SERVICE BURLINGTON VT
400 AM EDT MON APR 21 2014

NOTE: "FAIR" INDICATES FEW OR NO CLOUDS BELOW 12,000 FEET WITH NO
SIGNIFICANT WEATHER AND/OR OBSTRUCTIONS TO VISIBILITY.

* THESE REPORTS ARE NOT UNDER NWS QUALITY CONTROL AND/OR DO NOT
  REPORT WEATHER SUCH AS PRECIPITATION AND FOG.

VTZ001>019-210900-
_____VERMONT_____


CITY           SKY/WX    TMP DP  RH WIND       PRES   REMARKS
BURLINGTON     CLOUDY    52  25  35 S13G21    30.12F
MONTPELIER     MOSUNNY   43  19  38 SE6       30.17F
MORRISVILLE    PTSUNNY   39  29  67 CALM      30.13F
ST. JOHNSBURY*   N/A     37  26  64 MISG      30.14F
LYNDONVILLE*   CLOUDY    42  19  40 S5        30.15F
MIDDLEBURY*    FAIR      50  24  36 E6        30.16F
RUTLAND*       MOSUNNY   37  25  60 CALM      30.18S
SPRINGFIELD    MOSUNNY   35  28  75 CALM      30.20F
HIGHGATE*      CLOUDY    56  25  30 S10G16    30.08F
NEWPORT*       FAIR      47  17  29 S10       30.11F
BENNINGTON     SUNNY     35  24  64 CALM      30.19F
GALLUP MILLS*    N/A     19 N/A N/A MISG        N/A
UNION VILLAGE*   N/A     32 N/A N/A MISG        N/A
MT. MANSFIELD*   N/A     41 N/A N/A W14G25      N/A

_____LAKE CHAMPLAIN_____


CITY           SKY/WX    TMP DP  RH WIND       PRES   REMARKS
BURTON ISLAND*   N/A     46  32  57 S14         N/A
COLCHESTER RF*   N/A     46  32  57 S28         N/A
DIAMOND ISL*     N/A     50  30  46 S13         N/A

$$

NYZ007-026>031-035-052-083-210900-
_____NORTHERN NEW YORK_____


CITY           SKY/WX    TMP DP  RH WIND       PRES   REMARKS
PLATTSBURGH    CLOUDY    47  28  47 CALM      30.09F
SARANAC LAKE   CLOUDY    43  24  47 SW7       30.09F
MASSENA        CLOUDY    47  34  60 S5        30.07F
OGDENSBURG*    MOSUNNY   54  32  43 SW7       30.06F
POTSDAM*       CLOUDY    55  32  41 SW8       30.06F
PARISHVILLE*     N/A     46 N/A N/A SE9         N/A
WATERTOWN      PTSUNNY   57  30  35 S10G17    30.08F
FT DRUM        CLOUDY    51  31  47 SE9       30.08F
ALBANY         MOSUNNY   44  27  51 S8        30.20F
GLENS FALLS    MOSUNNY   47  26  44 S7        30.20S

$$
NHZ002-005-011-210900-
_____NEW HAMPSHIRE_____


CITY           SKY/WX    TMP DP  RH WIND       PRES   REMARKS
LEBANON        MOSUNNY   36  27  69 S3        30.18F
KEENE          SUNNY     32  21  64 CALM      30.23F
MT WASHINGTON  PTSUNNY   32   9  37 W35         N/A
PLYMOUTH         N/A     33  29  87 CALM      30.20F
WHITEFIELD     MOSUNNY   31  26  82 CALM      30.16F

$$

_____REGIONAL QUEBEC LOCATIONS_____


CITY           SKY/WX    TMP DP  RH WIND       PRES   REMARKS
MONTREAL       CLOUDY    48  30  49 W3        30.06F
QUEBEC CITY    CLOUDY    37  25  60 NW3       30.05F
SHERBROOKE     CLOUDY    41  27  56 E2        30.08F

_____REGIONAL ONTARIO LOCATIONS_____


CITY           SKY/WX    TMP DP  RH WIND       PRES   REMARKS
OTTAWA         CLOUDY    48  28  46 SW5       30.04F

______KEY______
VSB  - VISIBILITY IN MILES
WCI  - WIND CHILL INDEX
HX   - HEAT INDEX
$$



USA.gov is the U.S. government's official web portal to all federal, state and local government web resources and services.